Flag for Guyana Weather past 2 weeks in Georgetown, Guyana

Now
75 °F

Clear.


Feels Like: 74 °F
Forecast: 80 / 89 °F
Wind: No wind

Location: Georgetown/Cheddi Jagan International Airport

Current Time: Sep 22, 2014 at 4:17:23 AM

Latest Report: Sep 22, 2014 at 2:00 AM


Visibility: 10 mi

Pressure: 29.89 "Hg

Humidity: 94%

Dew point: 73 °F

Location of GeorgetownLocation

Historic Weather in Georgetown — Graph

°F

Georgetown temperature yesterday

Maximum temperature yesterday: 91 °F (at 11:00 AM)
Minimum temperature yesterday: 73 °F (at 3:00 AM)
Average temperature yesterday: 79 °F

Past Weeks' High & Low Weather Summary

 TemperatureHumidityPressure
High93 °F (Sep 11, 2:00 PM)100% (Sep 7, 4:00 AM)29.98 "Hg (Sep 7, 4:00 AM)
Low72 °F (Sep 7, 4:00 AM)47% (Sep 11, 2:00 PM)29.77 "Hg (Sep 11, 4:00 PM)
Average80 °F85%29.88 "Hg
* Reported Sep 7 4:00 AM — Sep 22 2:00 AM, Georgetown, Weather by CustomWeather, © 2014

Note: Actual official high and low records may vary slightly from our data, if they occured in-between our weather recording intervals... More about our weather records

Advertising

Georgetown weather history for previous 24 hours

 ConditionsComfort  
Time TempWeatherWind HumidityBarometerVisibility
2:00 AM
Sep 22
75 °FClear.No wind94%29.89 "Hg10 mi
1:00 AM73 °FClear.No wind100%29.89 "Hg10 mi
11:00 PM
Sep 21
73 °FClear.No wind100%29.92 "Hg10 mi
10:00 PM75 °FClear.No wind94%29.92 "Hg10 mi
9:00 PM75 °FClear.No wind94%29.92 "Hg10 mi
8:00 PM77 °FClear.No wind94%29.92 "Hg10 mi
7:00 PM79 °FClear.7 mph89%29.89 "Hg10 mi
6:00 PM81 °FPassing clouds.9 mph84%29.86 "HgN/A
5:00 PM84 °FScattered clouds.9 mph74%29.83 "HgN/A
4:00 PM86 °FPartly sunny.12 mph75%29.83 "HgN/A
3:00 PM86 °FBroken clouds.5 mph75%29.86 "HgN/A
2:00 PM86 °FBroken clouds.9 mph70%29.86 "HgN/A
1:00 PM82 °FPartly sunny.9 mph74%29.89 "HgN/A
12:00 PM82 °FThunderstorms. Partly sunny.9 mph84%29.92 "HgN/A
11:00 AM91 °FThunderstorms. Partly sunny.9 mph59%29.95 "HgN/A
10:00 AM86 °FPartly sunny.7 mph75%29.98 "HgN/A
9:00 AM86 °FPartly sunny.9 mph75%29.98 "HgN/A
8:00 AM82 °FPassing clouds.5 mph84%29.95 "HgN/A
7:00 AM75 °FScattered clouds.No wind100%29.92 "HgN/A
6:00 AM73 °FScattered clouds.No wind100%29.92 "Hg6 mi
5:00 AM73 °FFog.5 mph94%29.89 "Hg1 mi
4:00 AM73 °FFog.5 mph100%29.86 "Hg1 mi
Weather by CustomWeather, © 2014

See weather overviewHow to use our weather pages